Weather History for Marshall, MN

Change the Weather History Date:

Monday, January 6, 2014

  Actual Average Record
Temperature  
Mean Temperature -12 °F -  
Max Temperature -7 °F 19 °F 48 °F (2012)
Min Temperature -18 °F 1 °F -20 °F (1951)
Degree Days  
Heating Degree Days 78    
Moisture  
Dew Point -22 °F    
Average Humidity 66    
Maximum Humidity 77    
Minimum Humidity 58    
Precipitation  
Precipitation 0.00 in - - ()
Sea Level Pressure  
Sea Level Pressure 30.27 in    
Wind  
Wind Speed 16 mph (NW)    
Max Wind Speed 23 mph    
Max Gust Speed 29 mph    
Visibility 10 miles    
Events      
Averages and records for this station are not official NWS values.
T = Trace of Precipitation, MM = Missing Value Source: NWS Daily Summary

Daily Weather History Graph

Daily Weather History Graph

Search for Another Location

Airport:

Trip Planner

Search our weather history database for the weather conditions in past years. The results will help you decide how hot, cold, wet, or windy it might be!

Date:

Astronomy

Jan. 06, 2014 Rise Set
Actual Time 7:59 AM CST 4:59 PM CST
Civil Twilight 7:26 AM CST 5:32 PM CST
Nautical Twilight 6:49 AM CST 6:08 PM CST
Astronomical Twilight 6:14 AM CST 6:43 PM CST
Moon 11:00 AM CST (1/6) 11:50 PM CST (1/6)
Length of Visible Light 10h 05m
Length of Day
9h 00m
Waxing Crescent, 35% of the Moon is Illuminated
Jan 6
Waxing Crescent
Jan 7
First Quarter
Jan 15
Full
Jan 23
Last Quarter
Jan 30
New

Hourly Weather History & Observations

Time (CST) Temp. Windchill Dew Point Humidity Pressure Visibility Wind Dir Wind Speed Gust Speed Precip Events Conditions
12:15 AM -16.6 °F -37.9 °F -22.0 °F 76% 30.34 in 8.0 mi NNW 11.5 mph - N/A   Partly Cloudy
12:35 AM -16.6 °F -38.9 °F -23.8 °F 70% 30.34 in 2.0 mi NNW 12.7 mph - N/A   Overcast
12:55 AM -16.6 °F -41.4 °F -25.6 °F 64% 30.33 in 5.0 mi NNW 16.1 mph - N/A   Scattered Clouds
1:15 AM -16.6 °F -40.6 °F -25.6 °F 64% 30.33 in 4.0 mi NNW 15.0 mph - N/A   Partly Cloudy
1:35 AM -18.4 °F -41.2 °F -23.8 °F 76% 30.33 in 10.0 mi NNW 12.7 mph - N/A   Clear
1:55 AM -18.4 °F -39.1 °F -23.8 °F 76% 30.33 in 10.0 mi NNW 10.4 mph - N/A   Clear
2:15 AM -18.4 °F -41.2 °F -23.8 °F 76% 30.34 in 10.0 mi NW 12.7 mph - N/A   Clear
2:35 AM -16.6 °F -40.6 °F -27.4 °F 58% 30.34 in 10.0 mi NW 15.0 mph - N/A   Clear
2:55 AM -16.6 °F -41.4 °F -27.4 °F 58% 30.34 in 10.0 mi NW 16.1 mph - N/A   Clear
3:15 AM -18.4 °F -44.5 °F -25.6 °F 70% 30.34 in 10.0 mi NW 17.3 mph - N/A   Clear
3:35 AM -18.4 °F -45.2 °F -27.4 °F 63% 30.34 in 10.0 mi NNW 18.4 mph - N/A   Clear
3:55 AM -18.4 °F -42.1 °F -25.6 °F 70% 30.34 in 10.0 mi NW 13.8 mph - N/A   Clear
4:15 AM -18.4 °F -43.7 °F -27.4 °F 63% 30.34 in 10.0 mi NW 16.1 mph 21.9 mph N/A   Clear
4:35 AM -18.4 °F -44.5 °F -27.4 °F 63% 30.33 in 10.0 mi NW 17.3 mph 21.9 mph N/A   Clear
4:55 AM -18.4 °F -41.2 °F -25.6 °F 70% 30.34 in 10.0 mi NW 12.7 mph - N/A   Clear
5:15 AM -18.4 °F -45.2 °F -29.2 °F 58% 30.33 in 10.0 mi NW 18.4 mph - N/A   Clear
5:35 AM -18.4 °F -42.9 °F -25.6 °F 70% 30.33 in 10.0 mi NW 15.0 mph - N/A   Clear
5:55 AM -18.4 °F -43.7 °F -27.4 °F 63% 30.33 in 10.0 mi NW 16.1 mph - N/A   Clear
6:15 AM -18.4 °F -40.2 °F -25.6 °F 70% 30.33 in 10.0 mi NW 11.5 mph - N/A   Clear
6:35 AM -18.4 °F -45.2 °F -27.4 °F 63% 30.32 in 10.0 mi NW 18.4 mph - N/A   Clear
6:55 AM -18.4 °F -44.5 °F -27.4 °F 63% 30.32 in 10.0 mi NW 17.3 mph - N/A   Clear
7:15 AM -18.4 °F -45.2 °F -27.4 °F 63% 30.32 in 10.0 mi NW 18.4 mph - N/A   Clear
7:35 AM -18.4 °F -42.9 °F -27.4 °F 63% 30.32 in 10.0 mi NW 15.0 mph - N/A   Clear
7:55 AM -18.4 °F -42.1 °F -25.6 °F 70% 30.32 in 10.0 mi NW 13.8 mph - N/A   Clear
8:15 AM -18.4 °F -43.7 °F -27.4 °F 63% 30.32 in 10.0 mi NW 16.1 mph - N/A   Clear
8:35 AM -18.4 °F -42.9 °F -27.4 °F 63% 30.33 in 10.0 mi NW 15.0 mph - N/A   Clear
8:55 AM -18.4 °F -44.5 °F -25.6 °F 70% 30.33 in 10.0 mi NW 17.3 mph - N/A   Clear
9:15 AM -16.6 °F -42.9 °F -27.4 °F 58% 30.33 in 10.0 mi NW 18.4 mph - N/A   Clear
9:35 AM -16.6 °F -42.9 °F -25.6 °F 64% 30.33 in 10.0 mi NW 18.4 mph - N/A   Clear
9:55 AM -16.6 °F -43.5 °F -23.8 °F 70% 30.33 in 10.0 mi NW 19.6 mph - N/A   Clear
10:15 AM -14.8 °F -41.2 °F -25.6 °F 58% 30.33 in 10.0 mi NW 19.6 mph - N/A   Clear
10:35 AM -14.8 °F -40.5 °F -23.8 °F 64% 30.33 in 10.0 mi NW 18.4 mph - N/A   Clear
10:55 AM -14.8 °F -41.2 °F -23.8 °F 64% 30.32 in 10.0 mi NW 19.6 mph - N/A   Clear
11:15 AM -13.0 °F -38.8 °F -23.8 °F 59% 30.32 in 10.0 mi NW 19.6 mph 25.3 mph N/A   Clear
11:35 AM -13.0 °F -39.4 °F -22.0 °F 64% 30.30 in 10.0 mi NW 20.7 mph - N/A   Clear
11:55 AM -11.2 °F -35.2 °F -22.0 °F 59% 30.29 in 10.0 mi NW 17.3 mph - N/A   Clear
12:15 PM -11.2 °F -35.8 °F -20.2 °F 64% 30.28 in 10.0 mi NW 18.4 mph 23.0 mph N/A   Clear
12:35 PM -11.2 °F -37.6 °F -20.2 °F 64% 30.27 in 10.0 mi WNW 21.9 mph 25.3 mph N/A   Clear
12:55 PM -9.4 °F -34.1 °F -20.2 °F 59% 30.26 in 10.0 mi WNW 19.6 mph - N/A   Clear
1:15 PM -9.4 °F -34.1 °F -20.2 °F 59% 30.26 in 10.0 mi WNW 19.6 mph 25.3 mph N/A   Clear
1:35 PM -9.4 °F -34.7 °F -18.4 °F 65% 30.25 in 10.0 mi WNW 20.7 mph - N/A   Clear
1:55 PM -9.4 °F -34.1 °F -18.4 °F 65% 30.24 in 10.0 mi WNW 19.6 mph - N/A   Clear
2:15 PM -9.4 °F -34.7 °F -20.2 °F 59% 30.24 in 10.0 mi WNW 20.7 mph 28.8 mph N/A   Clear
2:35 PM -9.4 °F -35.8 °F -18.4 °F 65% 30.25 in 10.0 mi WNW 23.0 mph - N/A   Clear
2:55 PM -9.4 °F -35.2 °F -18.4 °F 65% 30.25 in 10.0 mi NW 21.9 mph 26.5 mph N/A   Clear
3:15 PM -9.4 °F -34.1 °F -18.4 °F 65% 30.25 in 10.0 mi WNW 19.6 mph - N/A   Clear
3:35 PM -9.4 °F -34.1 °F -18.4 °F 65% 30.24 in 10.0 mi WNW 19.6 mph 25.3 mph N/A   Clear
3:55 PM -9.4 °F -34.7 °F -18.4 °F 65% 30.25 in 10.0 mi WNW 20.7 mph - N/A   Clear
4:15 PM -9.4 °F -35.2 °F -20.2 °F 59% 30.23 in 10.0 mi WNW 21.9 mph - N/A   Clear
4:35 PM -9.4 °F -34.7 °F -18.4 °F 65% 30.23 in 10.0 mi WNW 20.7 mph - N/A   Clear
4:55 PM -9.4 °F -34.7 °F -20.2 °F 59% 30.23 in 10.0 mi WNW 20.7 mph 26.5 mph N/A   Clear
5:15 PM -9.4 °F -32.8 °F -18.4 °F 65% 30.23 in 10.0 mi WNW 17.3 mph 21.9 mph N/A   Clear
5:35 PM -9.4 °F -33.5 °F -20.2 °F 59% 30.23 in 10.0 mi West 18.4 mph - N/A   Clear
5:55 PM -9.4 °F -32.1 °F -18.4 °F 65% 30.22 in 10.0 mi West 16.1 mph - N/A   Clear
6:15 PM -9.4 °F -32.8 °F -18.4 °F 65% 30.22 in 10.0 mi West 17.3 mph - N/A   Clear
6:35 PM -9.4 °F -31.4 °F -18.4 °F 65% 30.21 in 10.0 mi West 15.0 mph - N/A   Clear
6:55 PM -9.4 °F -34.1 °F -18.4 °F 65% 30.21 in 10.0 mi West 19.6 mph 24.2 mph N/A   Clear
7:15 PM -9.4 °F -32.1 °F -18.4 °F 65% 30.21 in 10.0 mi West 16.1 mph - N/A   Clear
7:35 PM -11.2 °F -32.1 °F -18.4 °F 70% 30.21 in 10.0 mi West 12.7 mph - N/A   Clear
7:55 PM -11.2 °F -31.1 °F -18.4 °F 70% 30.21 in 10.0 mi West 11.5 mph - N/A   Clear
8:15 PM -9.4 °F -30.6 °F -16.6 °F 71% 30.20 in 10.0 mi WNW 13.8 mph - N/A   Clear
8:35 PM -9.4 °F -29.8 °F -16.6 °F 71% 30.20 in 10.0 mi WNW 12.7 mph - N/A   Clear
8:55 PM -9.4 °F -30.6 °F -18.4 °F 65% 30.20 in 10.0 mi West 13.8 mph - N/A   Clear
9:15 PM -9.4 °F -30.6 °F -16.6 °F 71% 30.19 in 10.0 mi West 13.8 mph - N/A   Clear
9:35 PM -9.4 °F -30.6 °F -16.6 °F 71% 30.19 in 10.0 mi West 13.8 mph - N/A   Clear
9:55 PM -9.4 °F -29.8 °F -16.6 °F 71% - 10.0 mi WNW 12.7 mph - N/A   Clear
10:15 PM -9.4 °F -28.9 °F -16.6 °F 71% 30.16 in 10.0 mi WNW 11.5 mph - N/A   Clear
10:35 PM -9.4 °F -27.9 °F -16.6 °F 71% 30.16 in 10.0 mi WNW 10.4 mph - N/A   Clear
10:55 PM -9.4 °F -26.8 °F -16.6 °F 71% 30.14 in 10.0 mi WNW 9.2 mph - N/A   Clear
11:15 PM -7.6 °F -26.6 °F -16.6 °F 65% 30.15 in 10.0 mi West 11.5 mph - N/A   Clear
11:35 PM -7.6 °F -25.7 °F -13.0 °F 77% 30.14 in 10.0 mi West 10.4 mph - N/A   Scattered Clouds
11:55 PM -7.6 °F -24.6 °F -14.8 °F 71% 30.14 in 10.0 mi West 9.2 mph - N/A   Mostly Cloudy